Location: LDNL
(36.4545°S, 141.6685°E)
Time: 22:51:04
(UTC+10:00)

Courier 1B Rocket - Pass Details

Date: 18 August 2022
Orbit: 920 x 1202 km, 28.2° (Epoch: 28 September)

Event Time Altitude Azimuth Distance (km) Brightness Sun altitude
Exits shadow 04:41:53 46° 351° (N) 1,565 5.8 -30.9°
Maximum altitude 04:42:08 46° 357° (N) 1,561 5.9 -30.9°
Drops below altitude 10° 04:49:29 10° 67° (ENE) 3,103 8.3 -29.4°
Sets 04:52:24 0° 73° (ENE) 4,038 9.2 -28.8°
